Hourly Data Report for October 24, 2013

All times are specified in Local Standard Time (LST). Add 1 hour to adjust for Daylight Saving Time where and when it is observed.

RANKIN INLET A
NUNAVUT

62°48'38.000" N
92°06'53.000" W
32.30 m
2303405
71083
YRT

Download Data

Hourly Data (October 2013)
Hourly Data Report for October 24, 2013
Temp Definition
°C
Dew Point Temp Definition
°C
Rel Hum Definition
%
Wind Dir Definition
10's deg

Wind Spd Definition
km/h
Visibility Definition
km
Stn Press Definition
kPa
Hmdx Definition


Wind Chill Definition


Weather Definition


TIME
00:00 Legend Double Dagger -4.6 -5.7 92 35 26 24.1 101.15   -12 Snow
01:00 Legend Double Dagger -4.3 -5.6 91 35 29 24.1 101.16   -12 Snow
02:00 Legend Double Dagger -4.8 -6.1 91 35 27 24.1 101.17   -12 Snow
03:00 Legend Double Dagger -5.1 -6.5 90 34 22 24.1 101.19   -12 Snow
04:00 Legend Double Dagger -5.1 -6.8 88 34 26 24.1 101.19   -13 Snow
05:00 Legend Double Dagger -5.2 -6.3 92 33 13 24.1 101.22   -10 Moderate Snow
06:00 Legend Double Dagger -4.4 -5.7 91 34 21 24.1 101.23   -11 Mostly Cloudy
07:00 Legend Double Dagger -5.9 -6.9 93 33 26 19.3 101.23   -14 Snow
08:00 Legend Double Dagger -9.7 -10.9 91 33 23 24.1 101.20   -18 LegendNANA
09:00 Legend Double Dagger -11.0 -12.5 89 33 14 24.1 101.18   -18 Mainly Clear
10:00 Legend Double Dagger -10.7 -12.2 89 34 14 24.1 101.15   -17 LegendNANA
11:00 Legend Double Dagger -10.1 -11.6 89 33 20 24.1 101.17   -18 LegendNANA
12:00 Legend Double Dagger -10.2 -12.0 87 32 15 24.1 101.17   -17 Mainly Clear
13:00 Legend Double Dagger -9.8 -11.7 86 30 15 24.1 101.11   -16 LegendNANA
14:00 Legend Double Dagger -10.4 -12.3 86 32 15 24.1 101.08   -17 LegendNANA
15:00 Legend Double Dagger -9.9 -11.7 87 30 14 24.1 101.06   -16 Mainly Clear
16:00 Legend Double Dagger -9.5 -11.0 89 33 11 24.1 101.02   -15 LegendNANA
17:00 Legend Double Dagger -8.1 -9.5 90 29 10 24.1 100.96   -13 LegendNANA
18:00 Legend Double Dagger -6.5 -7.7 91 25 8 24.1 100.89   -10 Mostly Cloudy
19:00 Legend Double Dagger -5.7 -6.7 93 30 9 19.3 100.84   -10 Freezing Drizzle
20:00 Legend Double Dagger -5.5 -6.6 92 30 13 24.1 100.82   -11 Snow
21:00 Legend Double Dagger -5.5 -6.7 91 30 8 24.1 100.76   -9 Snow
22:00 Legend Double Dagger -5.6 -6.6 93 31 9 24.1 100.73   -10 Snow
23:00 Legend Double Dagger -5.3 -6.1 94 30 10 24.1 100.69   -10 Snow

Notes on Data Quality.

Legend

  • E = Estimated
  • M = Missing
  • NA = Not Available
  • ‡ = Partner data that is not subject to review by the National Climate Archives
Date modified: